Weather History for Madison, MN

Change the Weather History Date:

Thursday, April 18, 2013

  Actual Average (KAQP) Record (KAQP)
Temperature  
Mean Temperature 32 °F -  
Max Temperature 33 °F 54 °F 82 °F (2004)
Min Temperature 28 °F 32 °F 24 °F (1999)
Degree Days  
Heating Degree Days 34    
Moisture  
Dew Point 29 °F    
Average Humidity 90    
Maximum Humidity 93    
Minimum Humidity 80    
Precipitation  
Precipitation 0.08 in - - ()
Sea Level Pressure  
Sea Level Pressure 29.84 in    
Wind  
Wind Speed 18 mph (NNW)    
Max Wind Speed 30 mph    
Max Gust Speed 37 mph    
Visibility 3 miles    
Events Snow    
Averages and records for this station are not official NWS values.
T = Trace of Precipitation, MM = Missing Value Source: NWS Daily Summary

Daily Weather History Graph

Daily Weather History Graph

Search for Another Location

Airport:

Trip Planner

Search our weather history database for the weather conditions in past years. The results will help you decide how hot, cold, wet, or windy it might be!

Date:

Astronomy

Apr. 18, 2013 Rise Set
Actual Time 6:34 AM CDT 8:14 PM CDT
Civil Twilight 6:03 AM CDT 8:45 PM CDT
Nautical Twilight 5:25 AM CDT 9:23 PM CDT
Astronomical Twilight 4:45 AM CDT 10:04 PM CDT
Moon 12:44 PM CDT (4/18) 2:33 AM CDT (4/18)
Length of Visible Light 14h 41m
Length of Day
13h 39m
First Quarter, 52% of the Moon is Illuminated
Apr 18
First Quarter
Apr 25
Full
May 2
Last Quarter
May 9
New
May 17
First Quarter

Hourly Weather History & Observations

Time (CDT) Temp. Windchill Dew Point Humidity Pressure Visibility Wind Dir Wind Speed Gust Speed Precip Events Conditions
12:14 AM 33.8 °F 25.3 °F 32.0 °F 93% 30.02 in 1.8 mi North 11.5 mph - 0.01 in Snow Light Snow
12:33 AM 33.8 °F 24.8 °F 32.0 °F 93% 30.00 in 3.0 mi North 12.7 mph - 0.01 in Snow Light Snow
12:54 AM 33.8 °F 24.3 °F 32.0 °F 93% 29.97 in 2.5 mi North 13.8 mph - 0.01 in Snow Light Snow
1:14 AM 33.8 °F 24.8 °F 32.0 °F 93% 29.98 in 4.0 mi North 12.7 mph - N/A Snow Light Snow
1:33 AM 33.8 °F 24.3 °F 32.0 °F 93% 29.95 in 5.0 mi North 13.8 mph - N/A Snow Light Snow
1:54 AM 33.8 °F 24.8 °F 32.0 °F 93% 29.95 in 7.0 mi North 12.7 mph - N/A Snow Light Snow
2:14 AM 33.8 °F 24.3 °F 30.2 °F 87% 29.95 in 5.0 mi North 13.8 mph 19.6 mph N/A Snow Light Snow
2:33 AM 33.8 °F 24.8 °F 30.2 °F 87% 29.96 in 10.0 mi North 12.7 mph - N/A Snow Light Snow
2:54 AM 33.8 °F 24.3 °F 30.2 °F 87% 29.94 in 10.0 mi North 13.8 mph - N/A   Overcast
3:14 AM 33.8 °F 24.8 °F 30.2 °F 87% 29.94 in 10.0 mi North 12.7 mph - N/A   Overcast
3:33 AM 33.8 °F 25.3 °F 30.2 °F 87% 29.97 in 10.0 mi North 11.5 mph - N/A   Overcast
3:54 AM 33.8 °F 25.3 °F 30.2 °F 87% 29.96 in 10.0 mi North 11.5 mph - N/A   Overcast
4:14 AM 33.8 °F 23.9 °F 30.2 °F 87% 29.92 in 10.0 mi North 15.0 mph - N/A   Overcast
4:33 AM 33.8 °F 24.3 °F 30.2 °F 87% 29.93 in 10.0 mi North 13.8 mph - N/A   Overcast
4:54 AM 33.8 °F 23.2 °F 30.2 °F 87% 29.93 in 10.0 mi North 17.3 mph 21.9 mph N/A   Overcast
5:14 AM 32.0 °F 20.5 °F 30.2 °F 93% 29.90 in 7.0 mi North 18.4 mph - N/A   Scattered Clouds
5:33 AM 32.0 °F 21.2 °F 30.2 °F 93% 29.92 in 5.0 mi North 16.1 mph - N/A   Mostly Cloudy
5:54 AM 32.0 °F 20.5 °F 30.2 °F 93% 29.89 in 4.0 mi North 18.4 mph 21.9 mph N/A Snow Light Snow
6:14 AM 30.2 °F 18.9 °F 28.4 °F 93% 29.89 in 3.0 mi North 16.1 mph - N/A Snow Light Snow
6:33 AM 30.2 °F 18.9 °F 28.4 °F 93% 29.89 in 3.0 mi North 16.1 mph 20.7 mph N/A Snow Light Snow
6:54 AM 30.2 °F 18.9 °F 28.4 °F 93% 29.86 in 2.0 mi North 16.1 mph - N/A Snow Light Snow
7:14 AM 30.2 °F 19.3 °F 28.4 °F 93% 29.87 in 2.5 mi North 15.0 mph 21.9 mph N/A Snow Light Snow
7:33 AM 30.2 °F 18.9 °F 28.4 °F 93% 29.87 in 1.2 mi North 16.1 mph 19.6 mph N/A Snow Light Snow
7:54 AM 30.2 °F 18.5 °F 28.4 °F 93% 29.88 in 1.5 mi NNW 17.3 mph 21.9 mph N/A Snow Light Snow
8:14 AM 30.2 °F 18.1 °F 28.4 °F 93% 29.85 in 1.8 mi NNW 18.4 mph 25.3 mph N/A Snow Light Snow
8:33 AM 30.2 °F 17.1 °F 28.4 °F 93% 29.84 in 0.8 mi North 21.9 mph 26.5 mph N/A Snow Light Snow
8:54 AM 30.2 °F 16.8 °F 28.4 °F 93% 29.83 in 1.0 mi North 23.0 mph - 0.01 in Snow Light Snow
9:14 AM 30.2 °F 17.8 °F 28.4 °F 93% 29.83 in 1.0 mi North 19.6 mph - N/A Snow Light Snow
9:33 AM 30.2 °F 17.4 °F 28.4 °F 93% 29.81 in 0.8 mi NNW 20.7 mph 26.5 mph N/A Snow Light Snow
9:54 AM 30.2 °F 17.8 °F 28.4 °F 93% 29.82 in 1.0 mi NNW 19.6 mph - N/A Snow Light Snow
10:14 AM 30.2 °F 17.4 °F 28.4 °F 93% 29.82 in 0.8 mi NNW 20.7 mph 26.5 mph N/A Snow Light Snow
10:33 AM 30.2 °F 18.1 °F 28.4 °F 93% 29.84 in 0.8 mi NNW 18.4 mph - N/A Snow Light Snow
10:54 AM 32.0 °F 20.1 °F 28.4 °F 87% 29.84 in 1.0 mi NNW 19.6 mph - N/A Snow Light Snow
11:14 AM 32.0 °F 20.1 °F 28.4 °F 87% 29.82 in 1.0 mi North 19.6 mph 24.2 mph 0.01 in Snow Light Snow
11:33 AM 32.0 °F 20.1 °F 28.4 °F 87% 29.82 in 0.5 mi NNW 19.6 mph - 0.01 in Snow Light Snow
11:54 AM 32.0 °F 19.8 °F 28.4 °F 87% 29.82 in 0.8 mi NNW 20.7 mph - 0.01 in Snow Light Snow
12:13 PM 32.0 °F 19.2 °F 28.4 °F 87% 29.81 in 0.5 mi NNW 23.0 mph - 0.01 in Snow Snow
12:34 PM 32.0 °F 19.2 °F 30.2 °F 93% 29.79 in 0.5 mi NNW 23.0 mph 27.6 mph 0.01 in Snow Snow
12:54 PM 32.0 °F 19.5 °F 30.2 °F 93% 29.79 in 0.5 mi NNW 21.9 mph 27.6 mph 0.02 in Snow Snow
1:13 PM 32.0 °F 20.1 °F 30.2 °F 93% 29.79 in 0.2 mi NNW 19.6 mph 27.6 mph 0.01 in Snow Snow
1:34 PM 32.0 °F 19.8 °F 30.2 °F 93% 29.78 in 0.2 mi NNW 20.7 mph 24.2 mph 0.02 in Snow Snow
1:54 PM 32.0 °F 20.1 °F 30.2 °F 93% 29.77 in 0.5 mi NNW 19.6 mph - N/A Snow Snow
2:14 PM 32.0 °F 18.4 °F 30.2 °F 93% 29.77 in 0.5 mi NNW 26.5 mph 31.1 mph N/A Snow Light Snow
2:33 PM 32.0 °F 18.6 °F 30.2 °F 93% 29.79 in 0.5 mi NNW 25.3 mph 29.9 mph N/A Snow Snow
2:54 PM 32.0 °F 18.6 °F 30.2 °F 93% 29.77 in 0.2 mi NNW 25.3 mph - 0.01 in Snow Snow
3:33 PM 32.0 °F 19.2 °F 30.2 °F 93% 29.77 in 0.5 mi NNW 23.0 mph - N/A Snow Light Snow
3:54 PM 33.8 °F 21.3 °F 30.2 °F 87% 29.76 in 0.8 mi NNW 24.2 mph 29.9 mph N/A Snow Light Snow
4:14 PM 33.8 °F 20.8 °F 30.2 °F 87% 29.76 in 0.8 mi NNW 26.5 mph - N/A Snow Light Snow
4:33 PM 33.8 °F 20.1 °F 30.2 °F 87% 29.77 in 1.0 mi NNW 29.9 mph 34.5 mph N/A Snow Light Snow
4:54 PM 32.0 °F 18.6 °F 30.2 °F 93% 29.76 in 0.8 mi NNW 25.3 mph 34.5 mph N/A Snow Light Snow
5:14 PM 32.0 °F 18.4 °F 30.2 °F 93% 29.76 in 0.5 mi NNW 26.5 mph 31.1 mph N/A Snow Snow
5:33 PM 32.0 °F 18.1 °F 30.2 °F 93% 29.76 in 0.5 mi NNW 27.6 mph 33.4 mph N/A Snow Light Snow
5:54 PM 32.0 °F 18.6 °F 30.2 °F 93% 29.76 in 0.5 mi NNW 25.3 mph 33.4 mph N/A Snow Light Snow
6:14 PM 32.0 °F 18.6 °F 30.2 °F 93% 29.76 in 0.8 mi NNW 25.3 mph 31.1 mph N/A Snow Light Snow
6:33 PM 32.0 °F 18.1 °F 30.2 °F 93% 29.76 in 0.8 mi NNW 27.6 mph 33.4 mph N/A Snow Light Snow
6:54 PM 32.0 °F 18.6 °F 30.2 °F 93% 29.76 in 0.8 mi NNW 25.3 mph 35.7 mph N/A Snow Light Snow
7:14 PM 32.0 °F 17.6 °F 30.2 °F 93% 29.77 in 0.8 mi NNW 29.9 mph 33.4 mph N/A Snow Light Snow
7:33 PM 32.0 °F 18.1 °F 30.2 °F 93% 29.77 in 1.0 mi NNW 27.6 mph 35.7 mph N/A Snow Light Snow
7:54 PM 30.2 °F 15.2 °F 28.4 °F 93% 29.77 in 1.0 mi NNW 29.9 mph 35.7 mph N/A Snow Light Snow
8:14 PM 30.2 °F 15.4 °F 28.4 °F 93% 29.78 in 1.2 mi NNW 28.8 mph 35.7 mph N/A Snow Light Snow
8:33 PM 30.2 °F 15.7 °F 28.4 °F 93% 29.78 in 1.5 mi NNW 27.6 mph 36.8 mph N/A Snow Light Snow
8:54 PM 30.2 °F 15.7 °F 26.6 °F 86% 29.79 in 1.5 mi NNW 27.6 mph 34.5 mph N/A Snow Light Snow
9:14 PM 30.2 °F 16.8 °F 26.6 °F 86% 29.79 in 2.0 mi NNW 23.0 mph 28.8 mph N/A Snow Light Snow
9:33 PM 30.2 °F 16.5 °F 26.6 °F 86% 29.80 in 1.8 mi NNW 24.2 mph 32.2 mph N/A Snow Light Snow
9:54 PM 30.2 °F 16.5 °F 26.6 °F 86% 29.80 in 1.8 mi NNW 24.2 mph 31.1 mph N/A Snow Light Snow
10:33 PM 30.2 °F 17.1 °F 24.8 °F 80% 29.79 in 7.0 mi NNW 21.9 mph 28.8 mph N/A Snow Light Snow
10:54 PM 30.2 °F 18.1 °F 24.8 °F 80% 29.78 in 10.0 mi NNW 18.4 mph 25.3 mph N/A   Clear
11:14 PM 30.2 °F 17.4 °F 24.8 °F 80% 29.77 in 10.0 mi NNW 20.7 mph 28.8 mph N/A   Scattered Clouds
11:33 PM 30.2 °F 17.4 °F 24.8 °F 80% 29.76 in 7.0 mi NW 20.7 mph 28.8 mph N/A   Scattered Clouds
11:54 PM 28.4 °F 14.7 °F 24.8 °F 86% 29.75 in 7.0 mi NW 21.9 mph 29.9 mph N/A   Clear